CALSPHERE 1 1 00900U 64063C 25350.72101590 .00000655 00000+0 65961-3 0 9993 2 00900 90.2211 67.5511 0027619 124.9552 354.9912 13.76373884 46322 CALSPHERE 2 1 00902U 64063E 25350.96635965 .00000058 00000+0 74026-4 0 9999 2 00902 90.2360 71.5021 0019722 41.3878 137.9004 13.52883438831620 LCS 1 1 01361U 65034C 25351.00773890 .00000026 00000+0 23494-2 0 9990 2 01361 32.1397 249.5917 0013526 197.7025 162.3002 9.89309652191841 TEMPSAT 1 1 01512U 65065E 25350.66532716 .00000065 00000+0 11045-3 0 9996 2 01512 89.9875 212.6646 0070890 42.3187 18.8749 13.33582670935724 CALSPHERE 4A 1 01520U 65065H 25350.90618153 .00000111 00000+0 19749-3 0 9993 2 01520 89.9101 124.2045 0068298 257.5303 228.8617 13.36240730938366 OPS 5712 (P/L 160) 1 02826U 67053A 25350.91184649 .00007807 00000+0 11868-2 0 9993 2 02826 69.9171 123.9941 0005746 288.0925 71.9595 14.74329155 39333 OPS 5712 (P/L 153) 1 02874U 67053H 25350.87575175 .00000062 00000+0 82980-4 0 9990 2 02874 69.9725 146.0668 0004629 62.2538 297.9037 13.96792967981328 RIGIDSPHERE 2 (LCS 4) 1 05398U 71067E 25350.84457505 .00000672 00000+0 21298-3 0 9998 2 05398 87.6209 29.4105 0062268 117.0002 243.7574 14.37568678847685 COSMOS 2493 (SKRL-756 1) 1 39490U 13078A 25350.89570543 .00002549 00000+0 19810-3 0 9991 2 39490 82.4139 79.3731 0014461 137.5888 222.6457 15.00846568650608 COSMOS 2494 (SKRL-756 2) 1 39491U 13078B 25350.94593525 .00002847 00000+0 20681-3 0 9992 2 39491 82.4130 69.4548 0018211 103.6709 256.6546 15.03383939651416